Location: Baia Mare
(47.6567°N, 23.5850°E)
Time: 23:30:04
(UTC+03:00)

ISS - Pass Details

Date: 04 September 2019
Orbit: 411 x 421 km, 51.6° (Epoch: 19 September)

Event Time Altitude Azimuth Distance (km) Brightness Sun altitude
Exits shadow 05:42:26 14° 279° (W) 1,268 -1.8 -11.2°
Maximum altitude 05:45:05 45° 350° (N) 581 -3.0 -10.8°
Drops below altitude 10° 05:48:19 10° 65° (ENE) 1,497 0.7 -10.3°
Sets 05:50:31 0° 72° (ENE) 2,379 2.4 -10.0°
